Home   Weather   Mildura   Past weeks

Flag for Australia Past Weather in Mildura, Victoria, Australia — Yesterday and Last 2 Weeks

Now
47 °F

Cool.


Feels Like: 42 °F
Forecast: 45 / 58 °F
Wind: 13 mph from West

Location: Mildura Airport

Current Time: Aug 18, 2017 at 3:39:03 am

Latest Report: Aug 18, 2017 at 3:00 am


Visibility: N/A

Pressure: 29.97 "Hg

Humidity: 77%

Dew Point: 40 °F

Location of MilduraLocation

Past Weather in Mildura — Graph

°F

Mildura Temperature Yesterday

Maximum temperature yesterday: 65 °F (at 2:00 pm)
Minimum temperature yesterday: 50 °F (at 6:00 am)
Average temperature yesterday: 56 °F

High & Low Weather Summary for the Past Weeks

 TemperatureHumidityPressure
High74 °F (Aug 14, 2:00 pm)100% (Aug 3, 1:00 pm)30.28 "Hg (Aug 3, 1:00 pm)
Low36 °F (Aug 8, 6:00 am)16% (Aug 10, 2:00 pm)29.62 "Hg (Aug 16, 3:00 am)
Average54 °F66%29.95 "Hg
* Reported Aug 3 2:00 am — Aug 18 2:00 am, Mildura. Weather by CustomWeather, © 2017

Note: Actual official high and low records may vary slightly from our data, if they occured in-between our weather recording intervals... More about our weather records

Advertising

Mildura Weather History for the Previous 24 Hours

Scroll right to see more
 ConditionsComfort  
Time TempWeatherWind HumidityBarometerVisibility
2:00 am
Fri, Aug 18
48 °FCool.13 mph75%29.96 "HgN/A
1:00 am49 °FCool.14 mph74%29.95 "HgN/A
12:00 am50 °FCool.13 mph75%29.94 "HgN/A
11:00 pm
Thu, Aug 17
50 °FCool.14 mph75%29.93 "HgN/A
10:00 pm50 °FCool.14 mph79%29.92 "HgN/A
9:00 pm51 °FOvercast.13 mph82%29.91 "HgN/A
8:00 pm53 °FCool.16 mph71%29.89 "HgN/A
7:00 pm58 °FRefreshingly cool.17 mph46%29.85 "HgN/A
6:00 pm60 °FPartly sunny.14 mph42%29.81 "HgN/A
5:00 pm62 °FRefreshingly cool.18 mph39%29.79 "HgN/A
4:00 pm63 °FMild.18 mph40%29.78 "HgN/A
3:00 pm63 °FPartly sunny.20 mph41%29.77 "Hg22 mi
2:00 pm65 °FMild.17 mph41%29.78 "HgN/A
1:00 pm64 °FMild.18 mph44%29.79 "HgN/A
12:00 pm61 °FPassing clouds.18 mph47%29.81 "HgN/A
11:00 am60 °FRefreshingly cool.18 mph52%29.83 "HgN/A
10:00 am57 °FRefreshingly cool.17 mph56%29.83 "HgN/A
9:00 am56 °FSunny.18 mph58%29.82 "Hg22 mi
8:00 am53 °FCool.13 mph63%29.80 "HgN/A
7:00 am51 °FCool.12 mph68%29.79 "HgN/A
6:00 am50 °FCool.9 mph69%29.77 "HgN/A
5:00 am51 °FCool.9 mph66%29.76 "HgN/A
4:00 am50 °FCool.7 mph69%29.77 "HgN/A
3:00 am52 °FCool.9 mph66%29.79 "HgN/A
Weather by CustomWeather, © 2017

See weather overviewHow to use our weather pages